Location: Brad
(46.1333°N, 22.7833°E)
Time: 04:07:23
(UTC+00:00)

Meteor 1-27 - Pass Details

Date: 03 February 2023
Orbit: 836 x 893 km, 81.3° (Epoch: 29 March)

Event Time Altitude Azimuth Distance (km) Brightness Sun altitude
Rises 17:12:37 0° 349° (N) 3,500 7.5 -16.9°
Reaches altitude 10° 17:15:06 10° 351° (N) 2,550 6.7 -17.3°
Maximum altitude 17:20:55 81° 79° (E) 889 4.2 -18.3°
Drops below altitude 10° 17:26:36 10° 167° (SSE) 2,494 6.5 -19.3°
Sets 17:29:00 0° 168° (SSE) 3,418 7.3 -19.7°
